Home > Time Zones > World Clock > Weather > Norway > Gran > Past weeks

Flag for Norway Weather past 2 weeks in Gran, Norway

Now
63 °F

Passing clouds.


Feels Like: 63 °F
Forecast: 45 / 60 °F
Wind: 9 mph from North

Location: Oslo Gardermoen Airport

Current Time: Aug 27, 2014 at 5:09:20 PM

Latest Report: Aug 27, 2014 at 4:20 PM


Visibility: N/A

Pressure: 29.92 "Hg

Humidity: 45%

Dew point: 41 °F

Location of GranLocation

Historic Weather in Gran — Graph

°F

Gran temperature yesterday

Maximum temperature yesterday: 64 °F (at 2:50 PM)
Minimum temperature yesterday: 45 °F (at 3:20 AM)
Average temperature yesterday: 55 °F

Past Weeks' High & Low Weather Summary

 TemperatureHumidityPressure
High68 °F (Aug 15, 4:20 PM)100% (Aug 13, 1:50 AM)29.92 "Hg (Aug 13, 1:50 AM)
Low43 °F (Aug 24, 3:50 AM)40% (Aug 15, 6:20 PM)29.18 "Hg (Aug 18, 12:50 PM)
Average55 °F80%29.55 "Hg
* Reported Aug 12 3:20 PM — Aug 27 3:50 PM, Gran, Weather by CustomWeather, © 2014

Note: Actual official high and low records may vary slightly from our data, if they occured in-between our weather recording intervals... More about our weather records

Advertising

Gran weather history for previous 24 hours

 ConditionsComfort  
Time TempWeatherWind HumidityBarometerVisibility
3:50 PM
Aug 27
64 °FPassing clouds.12 mph40%29.92 "HgN/A
3:20 PM63 °FPassing clouds.12 mph42%29.92 "HgN/A
2:50 PM64 °FSunny.13 mph43%29.92 "Hg10 mi
2:20 PM64 °FPassing clouds.13 mph43%29.92 "HgN/A
1:50 PM63 °FPassing clouds.12 mph49%29.92 "HgN/A
1:20 PM63 °FPassing clouds.14 mph45%29.92 "HgN/A
12:50 PM63 °FPassing clouds.12 mph45%29.92 "HgN/A
12:20 PM63 °FSunny.13 mph45%29.92 "Hg10 mi
11:50 AM61 °FSunny.10 mph48%29.92 "Hg10 mi
11:20 AM61 °FSunny.12 mph48%29.92 "Hg10 mi
10:50 AM61 °FPassing clouds.12 mph48%29.92 "HgN/A
10:20 AM59 °FPassing clouds.12 mph48%29.92 "HgN/A
9:50 AM59 °FPassing clouds.13 mph51%29.92 "HgN/A
9:20 AM57 °FPassing clouds.10 mph55%29.92 "HgN/A
8:50 AM55 °FPassing clouds.8 mph63%29.92 "HgN/A
8:20 AM54 °FPassing clouds.5 mph63%29.92 "HgN/A
7:50 AM52 °FPassing clouds.5 mph67%29.92 "HgN/A
7:20 AM50 °FPassing clouds.5 mph71%29.89 "HgN/A
6:50 AM50 °FClear.8 mph67%29.89 "Hg10 mi
6:20 AM50 °FPassing clouds.8 mph71%29.89 "HgN/A
5:50 AM50 °FPassing clouds.6 mph71%29.89 "HgN/A
5:20 AM48 °FPassing clouds.7 mph76%29.89 "HgN/A
4:50 AM50 °FPassing clouds.7 mph71%29.89 "HgN/A
4:20 AM50 °FPassing clouds.7 mph71%29.89 "HgN/A
3:50 AM50 °FClear.9 mph71%29.89 "Hg10 mi
3:20 AM52 °FClear.9 mph67%29.89 "Hg10 mi
2:50 AM52 °FClear.12 mph72%29.86 "Hg10 mi
2:20 AM50 °FClear.7 mph76%29.86 "Hg10 mi
1:50 AM52 °FClear.8 mph72%29.86 "Hg10 mi
1:20 AM52 °FClear.9 mph72%29.86 "Hg10 mi
12:50 AM52 °FClear.2 mph72%29.86 "Hg10 mi
12:20 AM52 °FPassing clouds.5 mph72%29.86 "HgN/A
11:50 PM
Aug 26
52 °FPassing clouds.5 mph72%29.83 "HgN/A
11:20 PM52 °FClear.6 mph72%29.83 "Hg10 mi
10:50 PM54 °FPassing clouds.5 mph67%29.83 "HgN/A
10:20 PM52 °FClear.5 mph77%29.83 "Hg10 mi
9:50 PM55 °FPassing clouds.6 mph67%29.83 "HgN/A
9:20 PM55 °FSunny.6 mph63%29.80 "Hg10 mi
8:50 PM57 °FPassing clouds.5 mph63%29.80 "HgN/A
8:20 PM59 °FSunny.6 mph59%29.80 "Hg10 mi
7:50 PM59 °FSunny.6 mph63%29.80 "Hg10 mi
7:20 PM61 °FSunny.8 mph55%29.77 "Hg10 mi
6:50 PM61 °FScattered showers. Clear.9 mph55%29.77 "HgN/A
6:20 PM64 °FPassing clouds.12 mph46%29.77 "HgN/A
5:50 PM64 °FPassing clouds.9 mph46%29.77 "HgN/A
5:20 PM64 °FPassing clouds.9 mph49%29.77 "HgN/A
Weather by CustomWeather, © 2014

See weather overviewHow to use our weather pages